This is the latest recevied weather packets stored in our database for station/object KA9CBS. If no packets are shown the sender has not sent any weather packets the latest 10 day(s).
| Time | Temp. | Humidity | Pressure | Rain* | Wind** | Luminosity | Snow |
|---|---|---|---|---|---|---|---|
| 1777859129 | 17.22° C | 53% | 1012.2 hPa | 0 mm | - | 0 W/m² | - |
| 1777858826 | 17.22° C | 53% | 1012.2 hPa | 0 mm | - | 0 W/m² | - |
| 1777858524 | 17.78° C | 52% | 1012.2 hPa | 0 mm | - | 0 W/m² | - |
| 1777858220 | 17.78° C | 52% | 1012.3 hPa | 0 mm | - | 0 W/m² | - |
| 1777857918 | 17.78° C | 52% | 1012.2 hPa | 0 mm | - | 0 W/m² | - |
| 1777857616 | 17.78° C | 52% | 1012.3 hPa | 0 mm | - | 0 W/m² | - |
| 1777857312 | 17.78° C | 51% | 1012.3 hPa | 0 mm | - | 0 W/m² | - |
| 1777857008 | 18.33° C | 50% | 1012.7 hPa | 0 mm | - | 0 W/m² | - |
| 1777856704 | 17.78° C | 51% | 1012.3 hPa | 0 mm | - | 0 W/m² | - |
| 1777856400 | 18.33° C | 51% | 1012.4 hPa | 0 mm | - | 0 W/m² | - |
| 1777856097 | 18.33° C | 50% | 1012.5 hPa | 0 mm | - | 0 W/m² | - |
| 1777855794 | 18.33° C | 49% | 1012.2 hPa | 0 mm | - | 1 W/m² | - |
| 1777855492 | 18.89° C | 49% | 1012.4 hPa | 0 mm | - | 3 W/m² | - |
| 1777855189 | 18.89° C | 48% | 1012.7 hPa | 0 mm | - | 5 W/m² | - |
| 1777854885 | 18.89° C | 48% | 1012.5 hPa | 0 mm | - | 9 W/m² | - |
| 1777854582 | 18.89° C | 48% | 1012.6 hPa | 0 mm | - | 12 W/m² | - |
| 1777854279 | 19.44° C | 47% | 1012.6 hPa | 0 mm | - | 15 W/m² | - |
| 1777853976 | 19.44° C | 45% | 1012.5 hPa | 0 mm | - | 19 W/m² | - |
| 1777853673 | 19.44° C | 45% | 1012.8 hPa | 0 mm | - | 23 W/m² | - |
| 1777853370 | 20° C | 45% | 1012.7 hPa | 0 mm | - | 24 W/m² | - |
| 1777853067 | 20° C | 45% | 1012.6 hPa | 0 mm | - | 28 W/m² | - |
| 1777852765 | 20° C | 45% | 1012.4 hPa | 0 mm | - | 30 W/m² | - |
| 1777852462 | 20° C | 46% | 1012.4 hPa | 0 mm | - | 33 W/m² | - |
| 1777852160 | 20° C | 44% | 1012.6 hPa | 0 mm | - | 36 W/m² | - |
| 1777851857 | 20° C | 45% | 1012.6 hPa | 0 mm | - | 37 W/m² | - |
* Rain latest hour (hover to see other rain measurements)
** Current wind speed in m/s (hover to see current wind gust speed)